Weather History for Prague, Czech Republic

Change the Weather History Date:

Wednesday, November 6, 2013

  Actual Average Record
Temperature  
Mean Temperature 41 °F -  
Max Temperature 47 °F 41 °F 59 °F (2011)
Min Temperature 35 °F 31 °F 21 °F (2002)
Degree Days  
Heating Degree Days 24    
Moisture  
Dew Point 37 °F    
Average Humidity 81    
Maximum Humidity 93    
Minimum Humidity 53    
Precipitation  
Precipitation 0.02 in 0.04 in - ()
Sea Level Pressure  
Sea Level Pressure 29.54 in    
Wind  
Wind Speed 12 mph ()    
Max Wind Speed 23 mph    
Max Gust Speed 31 mph    
Visibility 6.7 miles    
Events Rain    
Averages and records for this station are not official NWS values.
T = Trace of Precipitation, MM = Missing Value Source: Averaged Metar Reports

Daily Weather History Graph

Daily Weather History Graph

Search for Another Location

Airport:

Trip Planner

Search our weather history database for the weather conditions in past years. The results will help you decide how hot, cold, wet, or windy it might be!

Date:

Astronomy

Nov. 06, 2013 Rise Set
Actual Time 7:01 AM CET 4:31 PM CET
Civil Twilight 6:26 AM CET 5:05 PM CET
Nautical Twilight 5:47 AM CET 5:44 PM CET
Astronomical Twilight 5:10 AM CET 6:22 PM CET
Moon 10:08 AM CET (11/6) 7:08 PM CET (11/6)
Length of Visible Light 10h 39m
Length of Day
9h 30m
Waxing Crescent, 11% of the Moon is Illuminated
Nov 6
Waxing Crescent
Nov 10
First Quarter
Nov 17
Full
Nov 25
Last Quarter
Dec 3
New

Hourly Weather History & Observations

Time (CET) Temp. Windchill Dew Point Humidity Pressure Visibility Wind Dir Wind Speed Gust Speed Precip Events Conditions
12:00 AM 37.4 °F 31.4 °F 30.2 °F 75% 29.42 in - SSE 8.1 mph - N/A   Clear
12:30 AM 37.4 °F 31.4 °F 30.2 °F 75% 29.39 in - South 8.1 mph - N/A   Clear
12:52 AM 39.2 °F 33.0 °F 30.2 °F 70% 29.39 in 6.2 mi South 9.2 mph - N/A Rain Light Rain
1:00 AM 39 °F - 31 °F 64% 29.45 in 12 mi SSW 8.9 mph - - Rain Light Rain
1:00 AM 39.2 °F 33.0 °F 30.2 °F 70% 29.39 in 6.2 mi South 9.2 mph - N/A Rain Light Rain
1:30 AM 39.2 °F 33.6 °F 32.0 °F 75% 29.39 in 6.2 mi South 8.1 mph - N/A Rain Light Rain
2:00 AM 37.4 °F 31.4 °F 33.8 °F 87% 29.39 in 6.2 mi South 8.1 mph - N/A Rain Light Rain
2:30 AM 37.4 °F 31.4 °F 33.8 °F 87% 29.39 in 6.2 mi South 8.1 mph - N/A Rain Light Rain
2:45 AM 37.4 °F 30.8 °F 35.6 °F 93% 29.39 in 5.6 mi South 9.2 mph - N/A Rain Rain
3:00 AM 37.4 °F 30.8 °F 35.6 °F 93% 29.39 in 6.2 mi South 9.2 mph - N/A Rain Light Rain
3:07 AM 37.4 °F 30.8 °F 35.6 °F 93% 29.39 in 5.6 mi South 9.2 mph - N/A Rain Rain
3:13 AM 37.4 °F 31.4 °F 35.6 °F 93% 29.39 in 6.2 mi South 8.1 mph - N/A Rain Light Rain
3:30 AM 37.4 °F 31.4 °F 35.6 °F 93% 29.39 in 6.2 mi South 8.1 mph - N/A Rain Light Rain
4:00 AM 39.2 °F 31.6 °F 37.4 °F 93% 29.39 in 6.2 mi South 12.7 mph - N/A Rain Light Rain
4:16 AM 39.2 °F 30.8 °F 37.4 °F 93% 29.39 in 6.2 mi SSW 15.0 mph - N/A   Mostly Cloudy
4:30 AM 39.2 °F 30.2 °F 37.4 °F 93% 29.39 in 6.2 mi SSW 17.3 mph - N/A Rain Light Rain
5:00 AM 41.0 °F 33.1 °F 37.4 °F 87% 29.39 in 6.2 mi SW 15.0 mph - N/A   Mostly Cloudy
5:15 AM 41.0 °F 33.1 °F 39.2 °F 93% 29.42 in 6.2 mi SW 15.0 mph - N/A Rain Light Rain
5:30 AM 41.0 °F 32.8 °F 39.2 °F 93% 29.42 in 6.2 mi SW 16.1 mph - N/A   Mostly Cloudy
6:00 AM 42.8 °F 34.5 °F 39.2 °F 87% 29.42 in 6.2 mi SW 18.4 mph - N/A   Overcast
6:30 AM 42.8 °F 35.1 °F 39.2 °F 87% 29.44 in 6.2 mi WSW 16.1 mph - N/A   Overcast
7:00 AM 42 °F - 39 °F 86% 29.48 in 19 mi WSW 13.4 mph - - Rain Light Rain
7:00 AM 42.8 °F 35.1 °F 39.2 °F 87% 29.44 in 6.2 mi SW 16.1 mph - N/A   Scattered Clouds
7:30 AM 42.8 °F 35.1 °F 39.2 °F 87% 29.47 in 6.2 mi WSW 16.1 mph - N/A   Mostly Cloudy
8:00 AM 42.8 °F 34.5 °F 39.2 °F 87% 29.47 in 6.2 mi WSW 18.4 mph - N/A   Partly Cloudy
8:30 AM 42.8 °F 35.4 °F 39.2 °F 87% 29.47 in 6.2 mi WSW 15.0 mph - N/A   Partly Cloudy
9:00 AM 44.6 °F 36.9 °F 39.2 °F 81% 29.50 in 6.2 mi WSW 18.4 mph - N/A   Scattered Clouds
9:30 AM 44.6 °F 36.4 °F 39.2 °F 81% 29.50 in 6.2 mi WSW 20.7 mph - N/A   Mostly Cloudy
10:00 AM 46.4 °F 38.7 °F 39.2 °F 76% 29.50 in 6.2 mi SW 20.7 mph - N/A   Partly Cloudy
10:30 AM 44.6 °F 36.4 °F 39.2 °F 81% 29.53 in 6.2 mi WSW 20.7 mph - N/A   Scattered Clouds
10:52 AM 46.4 °F 38.5 °F 37.4 °F 71% 29.53 in 6.2 mi WSW 21.9 mph - N/A Rain Light Rain Showers
11:00 AM 46.4 °F 38.3 °F 37.4 °F 71% 29.53 in 6.2 mi WSW 23.0 mph - N/A Rain Light Rain Showers
11:16 AM 44.6 °F 38.1 °F 37.4 °F 76% 29.56 in 6.2 mi WNW 13.8 mph - N/A Rain Rain Showers
11:30 AM 42.8 °F 35.4 °F 39.2 °F 87% 29.56 in 6.2 mi WNW 15.0 mph 26.5 mph N/A   Mostly Cloudy
12:00 PM 46.4 °F 40.7 °F 39.2 °F 76% 29.56 in 6.2 mi West 12.7 mph - N/A   Mostly Cloudy
12:30 PM 46.4 °F 39.8 °F 37.4 °F 71% 29.56 in 6.2 mi West 16.1 mph - N/A   Mostly Cloudy
1:00 PM 47 °F - 35 °F 53% 29.61 in 31 mi West 17.9 mph - -   Partly Cloudy
1:00 PM 46.4 °F 39.5 °F 35.6 °F 66% 29.56 in 6.2 mi West 17.3 mph - N/A   Mostly Cloudy
1:30 PM 46.4 °F 39.0 °F 35.6 °F 66% 29.59 in 6.2 mi West 19.6 mph 31.1 mph N/A   Mostly Cloudy
2:00 PM 46.4 °F 39.2 °F 35.6 °F 66% 29.59 in 6.2 mi West 18.4 mph - N/A   Scattered Clouds
2:30 PM 46.4 °F 39.5 °F 35.6 °F 66% 29.62 in 6.2 mi West 17.3 mph - N/A   Partly Cloudy
3:00 PM 46.4 °F 39.5 °F 33.8 °F 62% 29.62 in 6.2 mi West 17.3 mph - N/A   Partly Cloudy
3:30 PM 46.4 °F 40.1 °F 35.6 °F 66% 29.65 in 6.2 mi West 15.0 mph - N/A   Partly Cloudy
4:00 PM 44.6 °F 37.8 °F 37.4 °F 76% 29.65 in 6.2 mi West 15.0 mph - N/A   Partly Cloudy
4:30 PM 46.4 °F 42.4 °F 37.4 °F 71% 29.65 in - WSW 8.1 mph - N/A   Clear
5:00 PM 44.6 °F 38.1 °F 37.4 °F 76% 29.65 in 6.2 mi SW 13.8 mph - N/A   Scattered Clouds
5:30 PM 44.6 °F 38.1 °F 37.4 °F 76% 29.68 in - SW 13.8 mph - N/A   Clear
6:00 PM 44.6 °F 37.8 °F 39.2 °F 81% 29.68 in - SW 15.0 mph - N/A   Clear
6:30 PM 44.6 °F 38.1 °F 39.2 °F 81% 29.68 in - SW 13.8 mph - N/A   Clear
7:00 PM 45 °F - 39 °F 71% 29.73 in 19 mi WSW 13.4 mph - -   Overcast
7:00 PM 44.6 °F 38.1 °F 39.2 °F 81% 29.68 in - SW 13.8 mph - N/A   Clear
7:30 PM 44.6 °F 38.8 °F 39.2 °F 81% 29.68 in 6.2 mi SW 11.5 mph - N/A Rain Light Rain
8:00 PM 44.6 °F 38.4 °F 39.2 °F 81% 29.71 in 6.2 mi SW 12.7 mph - N/A Rain Light Rain
8:30 PM 44.6 °F 38.8 °F 41.0 °F 87% 29.71 in 6.2 mi SW 11.5 mph - N/A Rain Light Rain
9:00 PM 44.6 °F 38.8 °F 41.0 °F 87% 29.71 in 6.2 mi SSW 11.5 mph - N/A Rain Light Rain
9:30 PM 44.6 °F 39.2 °F 41.0 °F 87% 29.71 in 6.2 mi SSW 10.4 mph - N/A Rain Light Rain
10:00 PM 44.6 °F 38.8 °F 41.0 °F 87% 29.71 in 6.2 mi SSW 11.5 mph - N/A Rain Light Rain
10:30 PM 44.6 °F 39.2 °F 42.8 °F 93% 29.74 in 6.2 mi SW 10.4 mph - N/A Rain Light Rain
11:00 PM 44.6 °F 39.2 °F 42.8 °F 93% 29.74 in 5.6 mi SSW 10.4 mph - N/A Rain Light Rain
11:30 PM 44.6 °F 40.2 °F 42.8 °F 93% 29.71 in 5.0 mi South 8.1 mph - N/A Rain Light Rain